• In Belgien
  • Länderverzeichnis
  • Für 7 Tage
  • Wassertemperatur
  • Satellitenkarten
  • Wetterkarte
  • Widgets
  • user-avatar
    Anmelden

    Stündliche Wetter Sabaudia

    Heute, 16 Juli, Montag

    Zeit Temperatur Niederschläge Wind Luftdruck Luftfeuchtigkeit
    00:00 +16°C° 0,5 mm 3 m/S 732 mmHg 97%
    01:00 +16°C° 0,5 mm 3 m/S 732 mmHg 97%
    02:00 +15°C° 0 mm 2 m/S 732 mmHg 98%
    03:00 +14°C° 0,6 mm 3 m/S 732 mmHg 98%
    04:00 +14°C° 0,6 mm 3 m/S 732 mmHg 98%
    05:00 +16°C° 0,6 mm 3 m/S 732 mmHg 98%
    06:00 +16°C° 0,4 mm 3 m/S 732 mmHg 97%
    07:00 +17°C° 0,4 mm 3 m/S 732 mmHg 96%
    08:00 +18°C° 0 mm 4 m/S 732 mmHg 94%
    09:00 +18°C° 0,5 mm 4 m/S 731 mmHg 92%
    10:00 +19°C° 0,5 mm 4 m/S 731 mmHg 89%
    11:00 +20°C° 0,5 mm 4 m/S 731 mmHg 87%
    12:00 +21°C° 0,5 mm 4 m/S 731 mmHg 81%
    13:00 +22°C° 0,5 mm 4 m/S 731 mmHg 77%
    14:00 +23°C° 0,5 mm 4 m/S 731 mmHg 72%
    15:00 +23°C° 0,9 mm 4 m/S 730 mmHg 74%
    16:00 +23°C° 0,9 mm 4 m/S 730 mmHg 75%
    17:00 +23°C° 0,9 mm 4 m/S 730 mmHg 77%
    18:00 +22°C° 0,7 mm 3 m/S 730 mmHg 81%
    19:00 +21°C° 0,7 mm 3 m/S 729 mmHg 86%
    20:00 +20°C° 0,7 mm 2 m/S 729 mmHg 90%
    21:00 +19°C° 0,5 mm 2 m/S 729 mmHg 92%
    22:00 +18°C° 0,5 mm 2 m/S 729 mmHg 94%
    23:00 +17°C° 0,5 mm 2 m/S 729 mmHg 96%

    Morgen, 17 Juli, Dienstag

    Zeit Temperatur Niederschläge Wind Luftdruck Luftfeuchtigkeit
    00:00 +17°C° 0 mm 2 m/S 729 mmHg 96%
    01:00 +17°C° 0 mm 2 m/S 729 mmHg 97%
    02:00 +16°C° 0 mm 2 m/S 729 mmHg 97%
    03:00 +16°C° 0 mm 2 m/S 728 mmHg 98%
    04:00 +16°C° 0 mm 2 m/S 728 mmHg 98%
    05:00 +16°C° 0 mm 2 m/S 728 mmHg 98%
    06:00 +17°C° 0 mm 3 m/S 728 mmHg 97%
    07:00 +18°C° 0 mm 3 m/S 728 mmHg 95%
    08:00 +18°C° 0 mm 3 m/S 728 mmHg 94%
    09:00 +19°C° 0,2 mm 3 m/S 729 mmHg 91%
    10:00 +20°C° 0,2 mm 3 m/S 729 mmHg 87%
    11:00 +21°C° 0,2 mm 3 m/S 729 mmHg 84%
    12:00 +22°C° 0,6 mm 3 m/S 729 mmHg 81%
    13:00 +22°C° 0,6 mm 3 m/S 728 mmHg 79%
    14:00 +24°C° 0,6 mm 3 m/S 728 mmHg 77%
    15:00 +24°C° 0,7 mm 3 m/S 728 mmHg 78%
    16:00 +24°C° 0,7 mm 3 m/S 728 mmHg 80%
    17:00 +24°C° 0,7 mm 3 m/S 728 mmHg 82%
    18:00 +22°C° 0,7 mm 3 m/S 728 mmHg 85%
    19:00 +21°C° 0,7 mm 3 m/S 728 mmHg 89%
    20:00 +19°C° 0,7 mm 3 m/S 728 mmHg 92%
    21:00 +19°C° 0,2 mm 3 m/S 728 mmHg 94%
    22:00 +19°C° 0,2 mm 3 m/S 728 mmHg 95%
    23:00 +18°C° 0,2 mm 3 m/S 728 mmHg 96%

    übermorgen, 18 Juli, Mittwoch

    Zeit Temperatur Niederschläge Wind Luftdruck Luftfeuchtigkeit
    00:00 +18°C° 0,3 mm 3 m/S 727 mmHg 96%
    01:00 +18°C° 0,3 mm 3 m/S 727 mmHg 97%
    02:00 +18°C° 0,3 mm 3 m/S 727 mmHg 97%
    03:00 +18°C° 0,2 mm 3 m/S 727 mmHg 97%
    04:00 +18°C° 0,2 mm 3 m/S 727 mmHg 97%
    05:00 +18°C° 0,2 mm 3 m/S 727 mmHg 98%
    06:00 +18°C° 0,4 mm 2 m/S 727 mmHg 97%
    07:00 +19°C° 0,4 mm 2 m/S 727 mmHg 97%
    08:00 +19°C° 0,4 mm 2 m/S 727 mmHg 96%
    09:00 +20°C° 0,4 mm 2 m/S 727 mmHg 93%
    10:00 +21°C° 0,4 mm 2 m/S 727 mmHg 90%
    11:00 +23°C° 0,4 mm 2 m/S 727 mmHg 86%
    12:00 +23°C° 0,5 mm 2 m/S 727 mmHg 84%
    13:00 +24°C° 0,5 mm 2 m/S 727 mmHg 82%
    14:00 +25°C° 0,5 mm 2 m/S 727 mmHg 80%
    15:00 +25°C° 0,9 mm 2 m/S 727 mmHg 82%
    16:00 +25°C° 0,9 mm 2 m/S 727 mmHg 83%
    17:00 +25°C° 0,9 mm 3 m/S 727 mmHg 84%
    18:00 +24°C° 1,6 mm 3 m/S 727 mmHg 87%
    19:00 +24°C° 1,6 mm 3 m/S 727 mmHg 89%
    20:00 +22°C° 1,6 mm 3 m/S 727 mmHg 91%
    21:00 +21°C° 1,3 mm 3 m/S 727 mmHg 93%
    22:00 +21°C° 1,3 mm 2 m/S 727 mmHg 94%
    23:00 +20°C° 1,3 mm 2 m/S 727 mmHg 96%

    19 Juli, Donnerstag

    Zeit Temperatur Niederschläge Wind Luftdruck Luftfeuchtigkeit
    00:00 +20°C° 0,5 mm 2 m/S 727 mmHg 97%
    01:00 +20°C° 0,5 mm 2 m/S 728 mmHg 97%
    02:00 +19°C° 0,5 mm 2 m/S 728 mmHg 98%
    03:00 +20°C° 0,5 mm 2 m/S 728 mmHg 98%
    04:00 +20°C° 0,5 mm 2 m/S 728 mmHg 98%
    05:00 +20°C° 0,5 mm 3 m/S 728 mmHg 98%
    06:00 +20°C° 0,2 mm 3 m/S 728 mmHg 97%
    07:00 +20°C° 0,2 mm 3 m/S 728 mmHg 96%
    08:00 +21°C° 0,2 mm 3 m/S 729 mmHg 95%
    09:00 +22°C° 0,2 mm 3 m/S 729 mmHg 91%
    10:00 +24°C° 0,2 mm 3 m/S 729 mmHg 87%
    11:00 +24°C° 0,2 mm 3 m/S 729 mmHg 84%
    12:00 +25°C° 0,4 mm 4 m/S 729 mmHg 79%
    13:00 +26°C° 0,4 mm 4 m/S 729 mmHg 75%
    14:00 +27°C° 0,4 mm 4 m/S 729 mmHg 71%
    15:00 +27°C° 0,4 mm 5 m/S 729 mmHg 71%
    16:00 +27°C° 0,4 mm 5 m/S 729 mmHg 72%
    17:00 +27°C° 0,4 mm 5 m/S 730 mmHg 72%
    18:00 +26°C° 0,4 mm 4 m/S 730 mmHg 77%
    19:00 +23°C° 0,4 mm 4 m/S 730 mmHg 81%
    20:00 +22°C° 0,4 mm 4 m/S 730 mmHg 86%
    21:00 +21°C° 0,1 mm 4 m/S 730 mmHg 88%
    22:00 +20°C° 0,1 mm 4 m/S 730 mmHg 91%
    23:00 +19°C° 0,1 mm 4 m/S 730 mmHg 94%

    20 Juli, Freitag

    Zeit Temperatur Niederschläge Wind Luftdruck Luftfeuchtigkeit
    00:00 +19°C° 0 mm 4 m/S 730 mmHg 94%
    01:00 +19°C° 0 mm 4 m/S 730 mmHg 95%
    02:00 +19°C° 0 mm 4 m/S 730 mmHg 96%
    03:00 +18°C° 0 mm 4 m/S 731 mmHg 96%
    04:00 +18°C° 0 mm 4 m/S 731 mmHg 96%
    05:00 +18°C° 0 mm 4 m/S 731 mmHg 97%
    06:00 +19°C° 0 mm 4 m/S 731 mmHg 95%
    07:00 +19°C° 0 mm 5 m/S 731 mmHg 94%
    08:00 +19°C° 0 mm 5 m/S 731 mmHg 92%
    09:00 +20°C° 0 mm 5 m/S 732 mmHg 90%
    10:00 +20°C° 0 mm 5 m/S 732 mmHg 88%
    11:00 +21°C° 0 mm 5 m/S 732 mmHg 86%
    12:00 +22°C° 0,1 mm 5 m/S 732 mmHg 81%
    13:00 +23°C° 0,1 mm 5 m/S 732 mmHg 75%
    14:00 +26°C° 0,1 mm 5 m/S 732 mmHg 69%
    15:00 +26°C° 0,3 mm 5 m/S 732 mmHg 71%
    16:00 +25°C° 0,3 mm 5 m/S 732 mmHg 72%
    17:00 +25°C° 0,3 mm 5 m/S 732 mmHg 74%
    18:00 +23°C° 0,2 mm 4 m/S 732 mmHg 78%
    19:00 +22°C° 0,2 mm 4 m/S 732 mmHg 83%
    20:00 +20°C° 0,2 mm 3 m/S 732 mmHg 87%
    21:00 +20°C° 0 mm 3 m/S 732 mmHg 89%
    22:00 +19°C° 0 mm 3 m/S 732 mmHg 91%
    23:00 +18°C° 0 mm 3 m/S 732 mmHg 93%

    21 Juli, Samstag

    Zeit Temperatur Niederschläge Wind Luftdruck Luftfeuchtigkeit
    00:00 +18°C° 0 mm 3 m/S 732 mmHg 94%
    01:00 +17°C° 0 mm 3 m/S 732 mmHg 95%
    02:00 +17°C° 0 mm 3 m/S 732 mmHg 96%
    03:00 +17°C° 0 mm 3 m/S 732 mmHg 97%
    04:00 +17°C° 0 mm 2 m/S 732 mmHg 97%
    05:00 +16°C° 0 mm 2 m/S 732 mmHg 97%
    06:00 +18°C° 0 mm 2 m/S 732 mmHg 94%
    07:00 +19°C° 0 mm 3 m/S 732 mmHg 91%
    08:00 +20°C° 0 mm 3 m/S 733 mmHg 88%
    09:00 +21°C° 0,2 mm 3 m/S 733 mmHg 82%
    10:00 +24°C° 0,2 mm 3 m/S 733 mmHg 76%
    11:00 +25°C° 0,2 mm 3 m/S 732 mmHg 70%
    12:00 +25°C° 0,5 mm 3 m/S 732 mmHg 69%
    13:00 +26°C° 0,5 mm 3 m/S 732 mmHg 67%
    14:00 +26°C° 0,5 mm 3 m/S 732 mmHg 66%
    15:00 +26°C° 0,7 mm 3 m/S 732 mmHg 67%
    16:00 +26°C° 0,7 mm 2 m/S 732 mmHg 68%
    17:00 +26°C° 0,7 mm 2 m/S 731 mmHg 70%
    18:00 +25°C° 1,1 mm 2 m/S 731 mmHg 75%
    19:00 +23°C° 1,1 mm 2 m/S 731 mmHg 80%
    20:00 +21°C° 1,1 mm 2 m/S 731 mmHg 85%
    21:00 +20°C° 0,1 mm 2 m/S 731 mmHg 87%
    22:00 +20°C° 0,1 mm 1 m/S 731 mmHg 89%
    23:00 +19°C° 0,1 mm 1 m/S 731 mmHg 91%
    Mehr zeigen